Location: B�rgermoos
(47.6500°N, 9.0667°E)
Time: 07:34:51
(UTC+00:00)

Cosmos 2026 Rocket - Pass Details

Date: 18 September 2020
Orbit: 940 x 1000 km, 82.9° (Epoch: 24 October)

Event Time Altitude Azimuth Distance (km) Brightness Sun altitude
Rises 19:56:08 0° 351° (N) 3,715 7.6 -24.3°
Reaches altitude 10° 19:58:40 10° 351° (N) 2,768 6.9 -24.6°
Maximum altitude 20:05:03 89° 82° (E) 1,006 3.9 -25.5°
Enters shadow 20:06:54 50° 171° (S) 1,255 4.2 -25.8°
